Location: El Hornillo
(40.2499°N, 5.1036°W)
Time: 09:55:35
(UTC+00:00)

Cosmos 1340 Rocket - Pass Details

Date: 05 August 2024
Orbit: 503 x 538 km, 81.2° (Epoch: 14 September)

Event Time Altitude Azimuth Distance (km) Brightness Sun altitude
Rises 22:24:20 0° 353° (N) 2,705 7.3 -26.4°
Reaches altitude 10° 22:26:31 10° 357° (N) 1,811 6.2 -26.7°
Enters shadow 22:29:02 36° 12° (NNE) 871 4.1 -26.9°
